Flag for Germany Weather past 2 weeks in Wismar, Mecklenburg-Western Pomerania, Germany

Now
59 °F

Partly sunny.


Feels Like: 60 °F
Forecast: 51 / 62 °F
Wind: 3 mph from West

Location: Schwerin

Current Time: Sep 23, 2014 at 4:49:43 PM

Latest Report: Sep 23, 2014 at 4:00 PM


Visibility: 19 mi

Pressure: 30.08 "Hg

Humidity: 46%

Dew point: 38 °F

Location of WismarLocation

Historic Weather in Wismar — Graph

°F

Wismar temperature yesterday

Maximum temperature yesterday: 55 °F (at 12:00 AM)
Minimum temperature yesterday: 47 °F (at 11:00 AM)
Average temperature yesterday: 52 °F

Past Weeks' High & Low Weather Summary

 TemperatureHumidityPressure
High76 °F (Sep 15, 4:00 PM)100% (Sep 21, 6:00 AM)30.23 "Hg (Sep 21, 6:00 AM)
Low47 °F (Sep 22, 11:00 AM)44% (Sep 10, 4:00 PM)29.77 "Hg (Sep 22, 8:00 AM)
Average61 °F80%30.04 "Hg
* Reported Sep 8 3:00 PM — Sep 23 3:00 PM, Wismar, Weather by CustomWeather, © 2014

Note: Actual official high and low records may vary slightly from our data, if they occured in-between our weather recording intervals... More about our weather records

Advertising

Wismar weather history for previous 24 hours

 ConditionsComfort  
Time TempWeatherWind HumidityBarometerVisibility
3:00 PM
Sep 23
60 °FOvercast.2 mph46%30.09 "Hg18 mi
2:00 PM58 °FScattered clouds.3 mph50%30.10 "Hg25 mi
1:00 PM57 °FPassing clouds.2 mph53%30.11 "Hg19 mi
12:00 PM55 °FScattered clouds.5 mph62%30.11 "Hg19 mi
11:00 AM54 °FOvercast.3 mph68%30.10 "Hg22 mi
10:00 AM53 °FPassing clouds.2 mph78%30.10 "Hg14 mi
9:00 AM49 °FPartly sunny.2 mph85%30.09 "Hg11 mi
8:00 AM47 °FScattered clouds.2 mph87%30.08 "Hg12 mi
7:00 AM48 °FPassing clouds.3 mph87%30.06 "Hg12 mi
6:00 AM50 °FOvercast.5 mph83%30.05 "Hg16 mi
4:00 AM51 °FOvercast.3 mph83%30.04 "Hg16 mi
3:00 AM50 °FOvercast.2 mph79%30.04 "Hg19 mi
2:00 AM49 °FOvercast.2 mph77%30.03 "Hg19 mi
1:00 AM51 °FOvercast.3 mph75%30.03 "Hg19 mi
12:00 AM52 °FOvercast.6 mph75%30.01 "Hg17 mi
10:00 PM
Sep 22
52 °FOvercast.5 mph82%29.98 "Hg22 mi
9:00 PM51 °FDrizzle. Overcast.6 mph83%29.98 "Hg5 mi
8:00 PM52 °FOvercast.5 mph82%29.96 "Hg22 mi
7:00 PM51 °FLight freezing rain. Overcast.6 mph90%29.93 "Hg4 mi
6:00 PM51 °FLight freezing rain. Overcast.6 mph93%29.92 "Hg1 mi
5:00 PM51 °FRain. Low clouds.5 mph94%29.90 "Hg1 mi
4:00 PM51 °FDrizzle. Overcast.7 mph92%29.89 "Hg4 mi
Weather by CustomWeather, © 2014

See weather overviewHow to use our weather pages